TimeCST,TemperatureF,Dew PointF,Humidity,Sea Level PressureIn,VisibilityMPH,Wind Direction,Wind SpeedMPH,Gust SpeedMPH,PrecipitationIn,Events,Conditions,WindDirDegrees,DateUTC
12:15 AM,28.4,28.4,100,30.34,10.0,Calm,Calm,-,N/A,,Clear,0,2012-11-19 06:15:00
12:35 AM,30.2,28.4,93,30.33,10.0,Calm,Calm,-,N/A,,Clear,0,2012-11-19 06:35:00
12:55 AM,30.2,28.4,93,30.32,10.0,Calm,Calm,-,N/A,,Clear,0,2012-11-19 06:55:00
1:15 AM,28.4,28.4,100,30.32,9.0,Calm,Calm,-,N/A,,Clear,0,2012-11-19 07:15:00
1:35 AM,28.4,28.4,100,30.32,5.0,Calm,Calm,-,N/A,,Clear,0,2012-11-19 07:35:00
1:55 AM,28.4,28.4,100,30.32,10.0,Calm,Calm,-,N/A,,Clear,0,2012-11-19 07:55:00
2:15 AM,28.4,28.4,100,30.33,10.0,Calm,Calm,-,N/A,,Clear,0,2012-11-19 08:15:00
2:35 AM,28.4,28.4,100,30.33,10.0,Calm,Calm,-,N/A,,Clear,0,2012-11-19 08:35:00
2:55 AM,28.4,26.6,93,30.32,10.0,Calm,Calm,-,N/A,,Clear,0,2012-11-19 08:55:00
3:15 AM,28.4,28.4,100,30.32,10.0,Calm,Calm,-,N/A,,Clear,0,2012-11-19 09:15:00
3:35 AM,28.4,26.6,93,30.32,9.0,East,3.5,-,N/A,,Clear,80,2012-11-19 09:35:00
3:55 AM,28.4,26.6,93,30.32,10.0,Calm,Calm,-,N/A,,Clear,0,2012-11-19 09:55:00
4:15 AM,28.4,26.6,93,30.32,10.0,Calm,Calm,-,N/A,,Clear,0,2012-11-19 10:15:00
4:35 AM,28.4,26.6,93,30.32,9.0,Calm,Calm,-,N/A,,Clear,0,2012-11-19 10:35:00
4:55 AM,26.6,26.6,100,30.32,10.0,Calm,Calm,-,N/A,,Clear,0,2012-11-19 10:55:00
5:15 AM,26.6,26.6,100,30.32,10.0,Calm,Calm,-,N/A,,Clear,0,2012-11-19 11:15:00
5:35 AM,26.6,26.6,100,30.33,10.0,Calm,Calm,-,N/A,,Clear,0,2012-11-19 11:35:00
5:55 AM,28.4,26.6,93,30.33,10.0,Calm,Calm,-,N/A,,Clear,0,2012-11-19 11:55:00
6:15 AM,26.6,26.6,100,30.33,10.0,Calm,Calm,-,N/A,,Clear,0,2012-11-19 12:15:00
6:35 AM,28.4,26.6,93,30.32,10.0,Calm,Calm,-,N/A,,Clear,0,2012-11-19 12:35:00
6:55 AM,30.2,28.4,93,30.32,10.0,Calm,Calm,-,N/A,,Clear,0,2012-11-19 12:55:00
7:35 AM,32.0,30.2,93,30.33,10.0,Calm,Calm,-,N/A,,Clear,0,2012-11-19 13:35:00
7:55 AM,35.6,32.0,87,30.33,10.0,Calm,Calm,-,N/A,,Clear,0,2012-11-19 13:55:00
8:15 AM,39.2,33.8,81,30.32,5.0,Calm,Calm,-,N/A,,Clear,0,2012-11-19 14:15:00
8:35 AM,41.0,35.6,81,30.32,7.0,Calm,Calm,-,N/A,,Clear,0,2012-11-19 14:35:00
8:55 AM,42.8,37.4,81,30.33,10.0,Calm,Calm,-,N/A,,Clear,0,2012-11-19 14:55:00
9:15 AM,42.8,37.4,81,30.33,10.0,Calm,Calm,-,N/A,,Clear,0,2012-11-19 15:15:00
9:35 AM,46.4,39.2,76,30.33,10.0,Calm,Calm,-,N/A,,Clear,0,2012-11-19 15:35:00
9:55 AM,48.2,39.2,71,30.33,10.0,Calm,Calm,-,N/A,,Clear,0,2012-11-19 15:55:00
10:15 AM,53.6,42.8,67,30.33,10.0,Calm,Calm,-,N/A,,Clear,0,2012-11-19 16:15:00
10:35 AM,55.4,41.0,58,30.33,10.0,Variable,3.5,-,N/A,,Clear,0,2012-11-19 16:35:00
10:55 AM,57.2,41.0,55,30.32,10.0,Calm,Calm,-,N/A,,Clear,0,2012-11-19 16:55:00
11:15 AM,59.0,39.2,48,30.31,10.0,Calm,Calm,-,N/A,,Clear,0,2012-11-19 17:15:00
11:35 AM,60.8,39.2,45,30.30,10.0,Variable,3.5,-,N/A,,Clear,0,2012-11-19 17:35:00
11:55 AM,60.8,39.2,45,30.30,10.0,West,3.5,-,N/A,,Clear,280,2012-11-19 17:55:00
12:15 PM,60.8,39.2,45,30.29,10.0,West,3.5,-,N/A,,Clear,280,2012-11-19 18:15:00
12:35 PM,62.6,41.0,45,30.27,10.0,WNW,4.6,-,N/A,,Clear,300,2012-11-19 18:35:00
12:55 PM,60.8,42.8,52,30.27,10.0,North,4.6,-,N/A,,Clear,350,2012-11-19 18:55:00
1:15 PM,60.8,41.0,48,30.26,10.0,Variable,4.6,-,N/A,,Clear,0,2012-11-19 19:15:00
1:35 PM,60.8,41.0,48,30.26,10.0,NNE,3.5,-,N/A,,Clear,20,2012-11-19 19:35:00
1:55 PM,60.8,42.8,52,30.25,10.0,NW,4.6,-,N/A,,Clear,320,2012-11-19 19:55:00
2:15 PM,62.6,41.0,45,30.24,10.0,NNE,4.6,-,N/A,,Clear,20,2012-11-19 20:15:00
2:35 PM,60.8,41.0,48,30.24,10.0,Variable,3.5,-,N/A,,Clear,0,2012-11-19 20:35:00
2:55 PM,59.0,39.2,48,30.25,10.0,NW,4.6,-,N/A,,Clear,320,2012-11-19 20:55:00
3:15 PM,60.8,39.2,45,30.24,10.0,WNW,3.5,-,N/A,,Clear,290,2012-11-19 21:15:00
3:35 PM,60.8,39.2,45,30.23,10.0,Calm,Calm,-,N/A,,Clear,0,2012-11-19 21:35:00
3:55 PM,59.0,41.0,51,30.23,10.0,Calm,Calm,-,N/A,,Clear,0,2012-11-19 21:55:00
4:15 PM,53.6,41.0,62,30.22,10.0,Calm,Calm,-,N/A,,Clear,0,2012-11-19 22:15:00
4:35 PM,46.4,39.2,76,30.22,10.0,Calm,Calm,-,N/A,,Clear,0,2012-11-19 22:35:00
4:55 PM,42.8,37.4,81,30.21,10.0,Calm,Calm,-,N/A,,Clear,0,2012-11-19 22:55:00
5:15 PM,42.8,37.4,81,30.21,10.0,Calm,Calm,-,N/A,,Clear,0,2012-11-19 23:15:00
5:35 PM,41.0,37.4,87,30.22,10.0,Calm,Calm,-,N/A,,Clear,0,2012-11-19 23:35:00
5:55 PM,42.8,35.6,76,30.22,10.0,Calm,Calm,-,N/A,,Clear,0,2012-11-19 23:55:00
6:15 PM,41.0,37.4,87,30.22,10.0,Calm,Calm,-,N/A,,Clear,0,2012-11-20 00:15:00
6:35 PM,39.2,35.6,87,30.21,10.0,Calm,Calm,-,N/A,,Clear,0,2012-11-20 00:35:00
6:55 PM,37.4,35.6,93,30.21,10.0,Calm,Calm,-,N/A,,Clear,0,2012-11-20 00:55:00
7:15 PM,37.4,35.6,93,30.22,10.0,Calm,Calm,-,N/A,,Clear,0,2012-11-20 01:15:00
7:35 PM,37.4,35.6,93,30.22,10.0,Calm,Calm,-,N/A,,Clear,0,2012-11-20 01:35:00
7:55 PM,35.6,35.6,100,30.23,10.0,Calm,Calm,-,N/A,,Clear,0,2012-11-20 01:55:00
8:15 PM,35.6,33.8,93,30.22,10.0,Calm,Calm,-,N/A,,Clear,0,2012-11-20 02:15:00
8:35 PM,35.6,35.6,100,30.22,10.0,Calm,Calm,-,N/A,,Clear,0,2012-11-20 02:35:00
8:55 PM,37.4,35.6,93,30.22,10.0,Calm,Calm,-,N/A,,Clear,0,2012-11-20 02:55:00
9:15 PM,37.4,35.6,93,30.21,10.0,Calm,Calm,-,N/A,,Clear,0,2012-11-20 03:15:00
9:35 PM,35.6,35.6,100,30.21,10.0,Calm,Calm,-,N/A,,Clear,0,2012-11-20 03:35:00
9:55 PM,37.4,37.4,100,30.20,10.0,Calm,Calm,-,N/A,,Clear,0,2012-11-20 03:55:00
10:15 PM,39.2,37.4,93,30.21,10.0,Calm,Calm,-,N/A,,Clear,0,2012-11-20 04:15:00
10:35 PM,39.2,37.4,93,30.20,10.0,Calm,Calm,-,N/A,,Clear,0,2012-11-20 04:35:00
10:55 PM,39.2,37.4,93,30.20,10.0,Calm,Calm,-,N/A,,Clear,0,2012-11-20 04:55:00
11:15 PM,39.2,37.4,93,30.20,10.0,Calm,Calm,-,N/A,,Clear,0,2012-11-20 05:15:00
11:35 PM,41.0,39.2,93,30.20,10.0,Calm,Calm,-,N/A,,Clear,0,2012-11-20 05:35:00
11:55 PM,41.0,39.2,93,30.20,10.0,Calm,Calm,-,N/A,,Clear,0,2012-11-20 05:55:00